[[{"header":{"parameterUnit":"m.s-1","parameterCategory":1,"la1":30.2991,"la2":30.254,"lo1":-89.0895,"lo2":-89.0444,"dy":0.0017,"dx":0.0017,"nx":28,"ny":28,"refTime":"2024-06-08T09:00:00:Z","depth":0,"parameterNumber":2,"parameterNumberName":"U-component_of_WINDS"},"data":[0,0,0,0,0,0,0,0,0,0,0,0,0,0,0,0,0,0,0,0,0,0,0,0,0,0,0,0,0,0,0,0,0,0,0,0,0,0,0,0,0,0,0,0,0,0,0,0,0,0,0,0,0,0,0,0,0,0,-0.7643,-0.7642,0,-0.7535,-0.7534,-0.7533,-0.7438,-0.7437,-0.7436,-0.7435,-0.7325,-0.7323,-0.7321,0,0,0,0,0,0,0,0,0,0,0,0,0,-0.7769,-0.7767,-0.7644,-0.7642,-0.7641,-0.7536,-0.7534,-0.7533,-0.7438,-0.7437,-0.7436,-0.7435,-0.7325,-0.7323,-0.7321,0,0,0,0,0,0,0,0,0,0,0,0,0,-0.7693,-0.7767,-0.7644,-0.7581,-0.7574,-0.7536,-0.7534,-0.7532,-0.7439,-0.7437,-0.7435,-0.7434,-0.7326,-0.7323,-0.732,-0.7335,0,0,-0.7311,-0.731,0,0,0,0,0,0,0,0,-0.7698,-0.7689,-0.7592,-0.7585,-0.7578,-0.7499,-0.7538,-0.7466,-0.7439,-0.749,-0.7435,-0.7433,-0.7384,-0.7376,-0.7359,-0.733,-0.7325,-0.7311,-0.7309,-0.7308,-0.7307,0,0,0,0,0,0,0,-0.7703,-0.7693,-0.7601,-0.759,-0.7582,-0.7559,-0.7546,-0.7524,-0.7448,-0.7486,-0.7479,-0.7467,-0.738,-0.7362,-0.7356,-0.7324,-0.7311,-0.7309,-0.7307,-0.7306,-0.7301,-0.7303,0,0,0,0,0,0,-0.7718,-0.7698,-0.7604,-0.7597,-0.7635,-0.7558,-0.7544,-0.7526,-0.7447,-0.7434,-0.7469,-0.7463,-0.7368,-0.736,-0.7352,-0.7364,-0.7308,-0.7306,-0.7304,-0.73,-0.7302,-0.7304,0,0,0,0,0,0,-0.7721,-0.771,-0.7608,-0.7646,-0.7631,-0.7557,-0.7538,-0.7524,-0.7507,-0.7435,-0.7421,-0.7465,-0.7367,-0.7356,-0.734,-0.7359,-0.7304,-0.7302,-0.7298,-0.73,-0.7303,-0.739,0,0,0,0,0,0,-0.7725,-0.7712,-0.7717,-0.7646,-0.7629,-0.7599,-0.7539,-0.7524,-0.7502,-0.7494,-0.7427,-0.7415,-0.7364,-0.7345,-0.7337,-0.7354,-0.7299,-0.7296,-0.7299,-0.7302,-0.7385,-0.7395,-0.7403,0,0,0,0,0,-0.773,-0.7745,-0.7717,-0.7707,-0.7634,-0.76,-0.759,-0.7532,-0.7504,-0.7508,-0.7462,-0.7417,-0.7359,-0.7344,-0.7335,-0.7351,-0.7294,-0.7298,-0.7302,-0.7381,-0.7393,-0.7403,0,0,0,0,0,0,-0.782,-0.7735,-0.7703,-0.7697,-0.7656,-0.7584,-0.7588,-0.7547,-0.7513,-0.7507,-0.7436,-0.7422,-0.7414,-0.7381,-0.7366,-0.7362,-0.732,-0.7322,-0.7384,-0.7395,-0.7404,-0.7412,-0.7297,0,0,0,0,0,-0.7839,-0.7819,-0.7746,-0.7747,-0.7728,-0.7662,-0.7645,-0.7604,-0.7559,-0.7542,-0.7494,-0.7452,-0.7424,-0.7408,-0.7378,-0.738,-0.7364,-0.7386,-0.7396,-0.7403,-0.7406,-0.7405,-0.7414,-0.7315,-0.7315,-0.7315,0,0,-0.7879,-0.783,-0.7821,-0.7764,-0.7728,-0.7709,-0.7648,-0.763,-0.7615,-0.7539,-0.7521,-0.7485,-0.7434,-0.7427,-0.7421,-0.7399,-0.743,-0.7408,-0.7415,-0.7413,-0.741,-0.7419,-0.7427,-0.7318,-0.7317,-0.7317,0,0,-0.794,-0.7901,-0.7898,-0.7863,-0.7809,-0.7765,-0.7765,-0.7699,-0.7672,-0.7653,-0.7595,-0.7576,-0.753,-0.7496,-0.7473,-0.7523,-0.748,-0.7515,-0.7564,-0.7564,-0.7571,-0.7578,-0.7596,-0.7603,-0.7518,-0.7518,-0.7518,0,-0.7996,-0.7965,-0.7902,-0.7888,-0.7864,-0.7794,-0.7791,-0.776,-0.77,-0.7686,-0.7661,-0.7602,-0.7562,-0.7547,-0.7559,-0.7543,-0.754,-0.7523,-0.7575,-0.7581,-0.7586,-0.7603,-0.761,-0.7523,-0.7522,-0.7522,-0.7521,0,-0.8036,-0.8015,-0.8019,-0.7963,-0.794,-0.7931,-0.7868,-0.7852,-0.7813,-0.7772,-0.7754,-0.7704,-0.7664,-0.7657,-0.7618,-0.7636,-0.7624,-0.7589,-0.7546,-0.7601,-0.7616,-0.7622,-0.753,-0.7528,-0.7526,-0.7525,0,0,-0.8152,-0.8061,-0.8064,-0.8037,-0.7973,-0.7955,-0.7944,-0.7904,-0.7893,-0.7853,-0.7842,-0.7805,-0.7772,-0.7745,-0.7703,-0.7702,-0.7746,-0.7667,-0.7664,-0.7683,-0.7763,-0.779,-0.7799,-0.7717,-0.7718,-0.7719,-0.7767,0,-0.8204,-0.8178,-0.8122,-0.8115,-0.8095,-0.8028,-0.8018,-0.7978,-0.7939,-0.7917,-0.7873,-0.7848,-0.7806,-0.779,-0.7787,-0.7741,-0.7761,-0.7737,-0.7706,-0.7706,-0.7722,-0.7806,-0.7835,-0.7883,-0.7772,-0.7773,-0.7774,0,-0.8261,-0.8226,-0.8217,-0.8153,-0.8143,-0.8135,-0.8094,-0.8074,-0.8027,-0.7998,-0.797,-0.7922,-0.7907,-0.7868,-0.7846,-0.7831,-0.7815,-0.7791,-0.7791,-0.7786,-0.7744,-0.7804,-0.7897,-0.7904,-0.7782,-0.7782,-0.7781,0,-0.8347,-0.8297,-0.8285,-0.8265,-0.8191,-0.8187,-0.8156,-0.8107,-0.8087,-0.8052,-0.8038,-0.8002,-0.7982,-0.7955,-0.7899,-0.7875,-0.7883,-0.7839,-0.786,-0.7861,-0.7864,-0.7865,-0.7957,-0.7854,-0.7854,-0.7854,-0.7854,0,-0.8411,-0.8408,-0.8323,-0.8316,-0.8311,-0.8246,-0.8243,-0.8206,-0.8163,-0.8148,-0.8088,-0.8075,-0.8002,-0.7981,-0.7937,-0.7926,-0.7917,-0.7894,-0.7882,-0.79,-0.7903,-0.7888,-0.7884,-0.7856,-0.7855,-0.7855,-0.7855,0,-0.8506,-0.8449,-0.8432,-0.8363,-0.8346,-0.8346,-0.8287,-0.8278,-0.8235,-0.8217,-0.8209,-0.8142,-0.8114,-0.8056,-0.8011,-0.7982,-0.7981,-0.796,-0.7997,-0.799,-0.8014,-0.8013,-0.81,-0.8109,-0.8001,-0.8002,-0.8003,0,-0.8551,-0.8547,-0.8478,-0.8464,-0.8435,-0.8412,-0.8392,-0.8328,-0.8309,-0.8255,-0.8253,-0.822,-0.819,-0.8148,-0.8096,-0.8062,-0.804,-0.8073,-0.8035,-0.8053,-0.8042,-0.8043,-0.8042,-0.8082,-0.8084,-0.8085,-0.8086,0,-0.8637,-0.8609,-0.8581,-0.8544,-0.8521,-0.8488,-0.8452,-0.8444,-0.8372,-0.8354,-0.8324,-0.8301,-0.8256,-0.8224,-0.8183,-0.8151,-0.8107,-0.8098,-0.8101,-0.8119,-0.8141,-0.813,-0.8021,-0.8097,-0.8096,-0.8095,-0.8094,-0.8094,-0.8709,-0.8702,-0.8653,-0.8624,-0.8591,-0.8559,-0.8547,-0.8503,-0.8477,-0.8435,-0.8399,-0.8373,-0.8327,-0.8266,-0.8237,-0.8216,-0.8194,-0.8199,-0.82,-0.8202,-0.821,-0.8144,-0.8208,-0.8208,-0.8207,-0.8207,-0.8207,0,-0.8792,-0.8757,-0.8731,-0.8683,-0.8661,-0.862,-0.8579,-0.8563,-0.8541,-0.8501,-0.8473,-0.8439,-0.8408,-0.8354,-0.8319,-0.8312,-0.8291,-0.8305,-0.8305,-0.8299,-0.8231,-0.8232,-0.8323,-0.8323,-0.8323,-0.8323,-0.8323,-0.8323,-0.8833,-0.882,-0.8786,-0.8757,-0.8721,-0.8695,-0.8675,-0.8646,-0.8614,-0.8579,-0.8553,-0.8517,-0.8472,-0.8433,-0.8403,-0.8387,-0.8377,-0.8398,-0.8377,-0.8314,-0.8304,-0.8293,-0.8294,-0.8396,-0.8397,-0.8446,-0.8447,-0.8447]},{"header":{"parameterUnit":"m.s-1","parameterCategory":1,"la1":30.2991,"la2":30.254,"lo1":-89.0895,"lo2":-89.0444,"dy":0.0017,"dx":0.0017,"nx":28,"ny":28,"refTime":"2024-06-08T09:00:00:Z","depth":0,"parameterNumber":3,"parameterNumberName":"V-component_of_WINDS"},"data":[0,0,0,0,0,0,0,0,0,0,0,0,0,0,0,0,0,0,0,0,0,0,0,0,0,0,0,0,0,0,0,0,0,0,0,0,0,0,0,0,0,0,0,0,0,0,0,0,0,0,0,0,0,0,0,0,0,0,3.1974,3.1974,0,3.198,3.198,3.198,3.1965,3.1964,3.1964,3.1963,3.1968,3.1969,3.1969,0,0,0,0,0,0,0,0,0,0,0,0,0,3.1951,3.1951,3.1974,3.1974,3.1975,3.198,3.198,3.198,3.1965,3.1964,3.1964,3.1963,3.1968,3.1968,3.1969,0,0,0,0,0,0,0,0,0,0,0,0,0,3.1959,3.1951,3.1974,3.1968,3.1967,3.198,3.198,3.198,3.1965,3.1964,3.1964,3.1963,3.1968,3.1968,3.1969,3.1988,0,0,3.1972,3.1972,0,0,0,0,0,0,0,0,3.1959,3.196,3.1969,3.1968,3.1968,3.1971,3.1973,3.1983,3.1965,3.1966,3.1963,3.1963,3.1969,3.197,3.1973,3.1988,3.1988,3.1972,3.1972,3.1973,3.1973,0,0,0,0,0,0,0,3.1958,3.196,3.1976,3.1969,3.1968,3.1964,3.1965,3.1975,3.1971,3.1966,3.1965,3.1966,3.1969,3.1972,3.1973,3.1989,3.1972,3.1972,3.1973,3.1973,3.202,3.2021,0,0,0,0,0,0,3.1958,3.1959,3.1976,3.1977,3.1961,3.1965,3.1966,3.1971,3.1971,3.1971,3.1966,3.1965,3.1971,3.1972,3.1973,3.1995,3.1973,3.1973,3.1974,3.2019,3.202,3.2021,0,0,0,0,0,0,3.1958,3.196,3.1976,3.1968,3.1969,3.1966,3.1972,3.1971,3.1974,3.1972,3.1971,3.197,3.197,3.1971,3.1984,3.1995,3.1974,3.1975,3.2018,3.202,3.2021,3.2039,0,0,0,0,0,0,3.1957,3.196,3.1967,3.1968,3.197,3.1988,3.1973,3.1972,3.1975,3.1974,3.1975,3.1974,3.197,3.1983,3.1985,3.1995,3.1975,3.2017,3.2019,3.202,3.2038,3.2041,3.2043,0,0,0,0,0,3.1957,3.1972,3.1968,3.197,3.1979,3.1989,3.199,3.1985,3.1976,3.1983,3.1982,3.1974,3.1993,3.1985,3.1987,3.1997,3.2017,3.2019,3.202,3.2036,3.204,3.2043,0,0,0,0,0,0,3.1972,3.1972,3.1967,3.1983,3.1986,3.1986,3.1995,3.1989,3.1994,3.1992,3.1985,3.1986,3.2,3.2,3.199,3.2016,3.2004,3.2006,3.2015,3.2019,3.2022,3.2021,3.1976,0,0,0,0,0,3.1978,3.1986,3.1985,3.1999,3.2001,3.1998,3.2002,3.1998,3.2,3.2001,3.2001,3.2003,3.201,3.2014,3.202,3.2038,3.2038,3.2046,3.2049,3.2051,3.2053,3.2062,3.2066,3.2027,3.2027,3.2026,0,0,3.1989,3.199,3.1995,3.2003,3.2004,3.2013,3.1999,3.2008,3.2014,3.2003,3.2015,3.2015,3.2017,3.2032,3.2039,3.2033,3.2064,3.2053,3.2055,3.2056,3.2064,3.2068,3.2071,3.2028,3.2027,3.2027,0,0,3.2013,3.2015,3.2027,3.2029,3.2032,3.203,3.2033,3.2034,3.2033,3.2046,3.2037,3.2044,3.2056,3.2058,3.206,3.2086,3.2079,3.2088,3.2103,3.2112,3.2115,3.2118,3.2127,3.213,3.209,3.209,3.209,0,3.2027,3.2039,3.2034,3.2044,3.2048,3.2038,3.205,3.2052,3.2057,3.2059,3.2053,3.2067,3.2068,3.2083,3.209,3.2092,3.2095,3.2088,3.2115,3.2118,3.2121,3.2129,3.2133,3.2091,3.2091,3.2091,3.2091,0,3.2055,3.2064,3.2074,3.2079,3.2083,3.2094,3.2091,3.2096,3.2092,3.209,3.2103,3.2104,3.211,3.2113,3.2109,3.2128,3.2124,3.2117,3.2104,3.2125,3.2133,3.2137,3.2093,3.2092,3.2092,3.2092,0,0,3.2089,3.2092,3.2095,3.2098,3.21,3.2107,3.2118,3.2124,3.2128,3.2132,3.2141,3.2151,3.2144,3.2147,3.2143,3.2151,3.2171,3.2142,3.2142,3.2147,3.2192,3.2198,3.2202,3.2166,3.2167,3.2168,3.2192,0,3.2113,3.2132,3.2128,3.2146,3.2154,3.2145,3.2154,3.2157,3.2156,3.2163,3.2161,3.2169,3.2159,3.2161,3.2168,3.2167,3.218,3.2165,3.2174,3.2174,3.2173,3.2206,3.2212,3.2234,3.2195,3.2195,3.2196,0,3.2144,3.2149,3.2168,3.217,3.2173,3.2181,3.2187,3.2193,3.2196,3.2195,3.2198,3.2193,3.2203,3.2191,3.2205,3.2195,3.2199,3.2199,3.2199,3.22,3.2186,3.2207,3.2242,3.2245,3.2201,3.22,3.22,0,3.2166,3.2178,3.2191,3.2193,3.2196,3.2202,3.2203,3.2205,3.2209,3.2214,3.2216,3.2222,3.2225,3.223,3.2226,3.2218,3.2241,3.2228,3.224,3.224,3.2245,3.2244,3.228,3.2247,3.2247,3.2247,3.2247,0,3.2193,3.2205,3.2201,3.2209,3.2223,3.2218,3.2231,3.2231,3.2233,3.2241,3.2233,3.2241,3.2235,3.2242,3.2239,3.2251,3.2253,3.2252,3.2251,3.2252,3.2252,3.2254,3.2252,3.2248,3.2248,3.2248,3.2248,0,3.2221,3.2219,3.2232,3.2234,3.2234,3.2244,3.2245,3.2252,3.2251,3.226,3.2262,3.226,3.2268,3.2265,3.2272,3.227,3.2286,3.2283,3.2285,3.2284,3.2296,3.2295,3.2334,3.2339,3.2303,3.2303,3.2304,0,3.2238,3.2247,3.225,3.2254,3.2256,3.2264,3.2268,3.2264,3.2269,3.2273,3.2279,3.2287,3.2292,3.2305,3.2303,3.2309,3.2306,3.232,3.2307,3.2308,3.2306,3.2306,3.2306,3.2322,3.2323,3.2323,3.2323,0,3.2269,3.2267,3.2274,3.2281,3.2286,3.2291,3.2295,3.2299,3.2295,3.23,3.2308,3.2313,3.2321,3.2328,3.2333,3.2334,3.2328,3.2327,3.233,3.2332,3.2332,3.2332,3.2292,3.2326,3.2326,3.2326,3.2326,3.2325,3.2291,3.2299,3.2302,3.231,3.2313,3.2317,3.2324,3.2323,3.233,3.2337,3.2334,3.2343,3.2345,3.2352,3.2354,3.2361,3.2356,3.236,3.2361,3.2362,3.2363,3.2332,3.2362,3.2362,3.2362,3.2362,3.2362,0,3.2322,3.2323,3.2331,3.2337,3.2343,3.2337,3.2341,3.2346,3.2355,3.2358,3.2363,3.2373,3.2379,3.2379,3.2385,3.2391,3.2388,3.2393,3.2392,3.2392,3.2368,3.2365,3.2395,3.2395,3.2395,3.2395,3.2395,3.2395,3.2338,3.2351,3.235,3.2364,3.2365,3.2375,3.2378,3.2381,3.2384,3.2394,3.24,3.24,3.2402,3.2408,3.2414,3.2414,3.2416,3.2422,3.2421,3.2398,3.2394,3.2391,3.2388,3.2423,3.2423,3.2445,3.2445,3.2445]}]]